Location: Bremen
(53.0793°N, 8.8017°E)
Time: 00:38:18
(UTC+02:00)

Altair - Pass Details

Date: 22 April 2024
Orbit: 1501 x 1682 km, 47.2° (Epoch: 19 May)

Event Time Altitude Azimuth Distance (km) Brightness Sun altitude
Rises 03:18:19 0° 285° (WNW) 4,806 10.0 -20.1°
Reaches altitude 10° 03:22:53 10° 267° (W) 3,781 9.2 -19.8°
Enters shadow 03:25:01 14° 255° (WSW) 3,448 8.9 -19.6°
Maximum altitude 03:28:18 17° 232° (SW) 3,220 - -19.3°
Drops below altitude 10° 03:33:37 10° 196° (SSW) 3,695 - -18.9°
Sets 03:38:02 0° 177° (S) 4,649 - -18.5°
